This demonstration page uses our WeatherBlox Daily Observations layout. Learn more.

40.92945, -100.16068

Hourly Observations for December 22, 2019

Temp ( °F °C ) Dew Point ( °F °C ) Humidity (%) Winds ( mph kmh ) Pressure ( in mb ) Visibility ( mi km ) Precip ( " mm )
12:15 am 00:15 Clear 29 -1.7 25 -3.8 86 86 Calm 30.21 1023 10 16.0934 0 0
12:35 am 00:35 Clear 28 -2.5 24 -4.2 88 88 Calm 30.22 1023 10 16.0934 0 0
12:55 am 00:55 Clear 28 -2.5 25 -4 90 90 Calm 30.22 1023 10 16.0934 0 0
1:15 am 01:15 Clear 27 -2.6 25 -4 90 90 Calm 30.21 1023 10 16.0934 0 0
1:35 am 01:35 Clear 27 -2.6 24 -4.5 87 87 Calm 30.21 1023 10 16.0934 0 0
1:55 am 01:55 Clear 28 -2.4 24 -4.5 86 86 Calm 30.21 1023 10 16.0934 0 0
2:15 am 02:15 Clear 27 -2.8 24 -4.6 88 88 Calm 30.22 1023 10 16.0934 0 0
2:35 am 02:35 Clear 26 -3.6 23 -5 90 90 Calm 30.22 1023 10 16.0934 0 0
2:55 am 02:55 Clear 27 -2.7 23 -4.9 85 85 W 6 9 30.21 1023 10 16.0934 0 0
3:15 am 03:15 Clear 26 -3.4 23 -5.2 88 88 N 5 7 30.23 1024 10 16.0934 0 0
3:35 am 03:35 Clear 25 -3.7 22 -5.5 87 87 Calm 30.22 1024 10 16.0934 0 0
3:55 am 03:55 Clear 26 -3.2 23 -5 88 88 WSW 5 7 30.21 1023 10 16.0934 0 0
4:15 am 04:15 Clear 28 -2.1 22 -5.5 78 78 W 7 11 30.19 1022 10 16.0934 0 0
4:35 am 04:35 Clear 28 -2.4 22 -5.7 78 78 WSW 6 9 30.19 1022 10 16.0934 0 0
4:55 am 04:55 Clear 26 -3.1 22 -5.8 82 82 W 3 6 30.2 1023 10 16.0934 0 0
5:15 am 05:15 Clear 28 -2.1 22 -5.8 76 76 WSW 7 11 30.19 1022 10 16.0934 0 0
5:35 am 05:35 Clear 26 -3.2 22 -5.8 82 82 W 5 7 30.19 1022 10 16.0934 0 0
5:55 am 05:55 Clear 26 -3.1 21 -6 81 81 WSW 3 6 30.19 1022 10 16.0934 0 0
6:15 am 06:15 Clear 26 -3.1 21 -6 81 81 SW 5 7 30.19 1022 10 16.0934 0 0
6:35 am 06:35 Clear 25 -3.7 21 -6 84 84 SW 5 7 30.19 1023 10 16.0934 0 0
6:55 am 06:55 Clear 24 -4.3 20 -6.5 85 85 Calm 30.2 1023 10 16.0934 0 0
7:15 am 07:15 Clear 22 -5.3 20 -6.8 89 89 Calm 30.22 1023 10 16.0934 0 0
7:35 am 07:35 Clear 22 -5.7 19 -7 91 91 Calm 30.22 1023 10 16.0934 0 0
7:55 am 07:55 Clear 22 -5.7 19 -7.3 89 89 W 5 7 30.22 1023 10 16.0934 0 0
8:15 am 08:15 Sunny 22 -5.6 19 -7 90 90 W 3 6 30.21 1023 10 16.0934 0 0
8:35 am 08:35 Sunny 23 -4.8 22 -5.8 93 93 W 5 7 30.22 1023 10 16.0934 0 0
8:55 am 08:55 Sunny 26 -3.1 24 -4.7 89 89 W 6 9 30.2 1023 10 16.0934 0 0
9:15 am 09:15 Sunny 29 -1.8 24 -4.4 83 83 W 5 7 30.2 1023 10 16.0934 0 0
9:35 am 09:35 Sunny 30 -1 25 -4.1 80 80 WSW 3 6 30.18 1022 10 16.0934 0 0
9:55 am 09:55 Sunny 32 0 26 -3.5 78 78 Calm 30.18 1022 10 16.0934 0 0
10:15 am 10:15 Sunny 34 1 27 -2.9 75 75 Calm 30.17 1022 10 16.0934 0 0
10:35 am 10:35 Sunny 36 2.2 28 -2.1 74 74 Calm 30.16 1021 10 16.0934 0 0
10:55 am 10:55 Sunny 38 3.3 28 -2.4 67 67 Calm 30.13 1020 10 16.0934 0 0
11:15 am 11:15 Sunny 40 4.2 29 -1.6 66 66 Calm 30.13 1020 10 16.0934 0 0
11:35 am 11:35 Sunny 42 5.5 30 -1.2 62 62 Calm 30.1 1019 10 16.0934 0 0
11:55 am 11:55 Sunny 46 7.7 31 -0.8 55 55 Calm 30.07 1018 10 16.0934 0 0
12:15 pm 12:15 Sunny 50 10.1 31 -0.7 47 47 Calm 30.04 1017 10 16.0934 0 0
12:35 pm 12:35 Sunny 54 12.2 29 -1.8 38 38 SSW 6 9 30.01 1016 10 16.0934 0 0
12:55 pm 12:55 Sunny 55 12.5 31 -0.8 40 40 Calm 30 1016 10 16.0934 0 0
1:15 pm 13:15 Sunny 57 14 29 -1.6 34 34 SW 5 7 29.97 1015 10 16.0934 0 0
1:35 pm 13:35 Sunny 58 14.4 29 -1.5 34 34 WSW 3 6 29.96 1015 10 16.0934 0 0
1:55 pm 13:55 Sunny 59 15.2 29 -1.4 32 32 WSW 5 7 29.95 1014 10 16.0934 0 0
2:15 pm 14:15 Sunny 61 16 27 -2.6 28 28 SW 5 7 29.94 1014 10 16.0934 0 0
2:35 pm 14:35 Sunny 61 16.1 27 -2.9 27 27 SSW 8 13 29.93 1013 10 16.0934 0 0
2:55 pm 14:55 Sunny 59 15.1 26 -3.1 29 29 SSW 9 15 29.93 1014 10 16.0934 0 0
3:15 pm 15:15 Sunny 58 14.3 27 -2.6 31 31 SSW 6 9 29.94 1014 10 16.0934 0 0
3:35 pm 15:35 Sunny 58 14.4 28 -2.2 32 32 SSW 7 11 29.94 1014 10 16.0934 0 0
3:55 pm 15:55 Sunny 56 13.2 29 -1.5 36 36 SSW 6 9 29.95 1014 10 16.0934 0 0
4:15 pm 16:15 Sunny 54 12.4 29 -1.7 38 38 S 6 9 29.96 1015 10 16.0934 0 0
4:35 pm 16:35 Sunny 51 10.4 29 -1.9 43 43 SSE 6 9 29.98 1015 10 16.0934 0 0
4:55 pm 16:55 Sunny 47 8.5 27 -2.8 45 45 SSE 8 13 30 1016 10 16.0934 0 0
5:15 pm 17:15 Sunny 46 7.5 26 -3.3 47 47 SSE 6 9 30 1016 10 16.0934 0 0
5:35 pm 17:35 Clear 44 6.8 26 -3.4 49 49 Calm 30.02 1017 10 16.0934 0 0
5:55 pm 17:55 Clear 38 3.5 25 -4.1 58 58 Calm 30.05 1018 10 16.0934 0 0
6:15 pm 18:15 Clear 38 3.4 26 -3.2 62 62 Calm 30.05 1018 10 16.0934 0 0
6:35 pm 18:35 Clear 37 2.7 26 -3.3 65 65 Calm 30.06 1018 10 16.0934 0 0
6:55 pm 18:55 Clear 35 1.9 26 -3.4 68 68 Calm 30.07 1018 10 16.0934 0 0
7:15 pm 19:15 Clear 35 1.8 26 -3.2 70 70 Calm 30.06 1018 10 16.0934 0 0
7:35 pm 19:35 Clear 35 1.4 27 -2.8 74 74 Calm 30.07 1018 10 16.0934 0 0
7:55 pm 19:55 Clear 32 0 27 -2.8 82 82 Calm 30.09 1019 10 16.0934 0 0
8:15 pm 20:15 Clear 32 -0.2 27 -3 82 82 Calm 30.09 1019 10 16.0934 0 0
8:35 pm 20:35 Clear 32 0.1 26 -3.4 78 78 SSE 5 7 30.08 1018 10 16.0934 0 0
8:55 pm 20:55 Clear 36 2.1 26 -3.5 67 67 S 6 9 30.06 1018 10 16.0934 0 0
9:15 pm 21:15 Clear 30 -1 26 -3.2 85 85 NW 3 6 30.09 1019 10 16.0934 0 0
9:35 pm 21:35 Clear 30 -1 26 -3.3 85 85 N 3 6 30.09 1019 10 16.0934 0 0
9:55 pm 21:55 Clear 30 -1.2 26 -3.4 85 85 N 5 7 30.1 1019 10 16.0934 0 0
10:15 pm 22:15 Clear 29 -1.4 26 -3.4 86 86 NNE 3 6 30.1 1019 10 16.0934 0 0
10:35 pm 22:35 Clear 30 -1.3 26 -3.2 87 87 N 3 6 30.1 1019 10 16.0934 0 0
10:55 pm 22:55 Clear 30 -1.2 26 -3.6 84 84 Calm 30.09 1019 10 16.0934 0 0
11:15 pm 23:15 Clear 30 -1.3 26 -3.6 85 85 Calm 30.09 1019 10 16.0934 0 0
11:35 pm 23:35 Clear 29 -1.5 26 -3.1 89 89 Calm 30.09 1019 10 16.0934 0 0
11:55 pm 23:55 Clear 29 -1.6 27 -3 90 90 Calm 30.08 1019 10 16.0934 0 0

Powered by AerisWeather